Date,TemperatureHighF,TemperatureAvgF,TemperatureLowF,DewpointHighF,DewpointAvgF,DewpointLowF,HumidityHigh,HumidityAvg,HumidityLow,PressureMaxIn,PressureMinIn,WindSpeedMaxMPH,WindSpeedAvgMPH,GustSpeedMaxMPH,PrecipitationSumIn
2013-9-1,88,76,69,73,68,64,86,77,56,29.95,29.82,8,0,13,0.56
2013-9-2,84,76,70,73,69,66,88,80,64,29.94,29.84,2,0,4,0.00
2013-9-3,88,78,70,71,68,63,85,72,44,29.99,29.84,4,0,7,0.00
2013-9-4,84,73,64,68,63,58,84,72,49,30.11,29.99,3,0,5,0.00
2013-9-5,86,74,66,68,64,61,86,72,45,30.14,30.07,3,0,4,0.00
2013-9-6,83,72,64,63,60,57,83,68,45,30.20,30.09,3,0,6,0.00
2013-9-7,83,67,61,65,60,56,85,77,51,30.16,30.01,2,0,4,0.00
2013-9-8,84,75,62,68,62,57,87,67,50,30.02,29.94,3,0,4,0.00
2013-9-9,84,84,84,64,64,64,51,51,51,30.16,30.01,0,0,2,0.00
2013-9-10,84,84,0,64,64,64,51,51,51,30.26,30.16,0,0,2,0.00
2013-9-11,0,0,0,64,64,64,0,0,100,30.20,30.10,0,0,0,0.00
2013-9-12,88,49,0,69,65,62,76,36,50,30.10,29.87,4,0,5,0.00
2013-9-13,82,74,68,63,58,51,78,58,43,29.92,29.81,5,1,9,0.00
2013-9-14,78,68,59,57,52,47,73,58,46,30.13,29.92,6,1,10,0.00
2013-9-15,81,73,58,64,60,51,78,65,52,30.23,30.11,3,0,6,0.00
2013-9-16,86,76,67,66,62,57,80,65,38,30.17,30.06,5,0,7,0.00
2013-9-17,77,70,64,60,55,50,66,58,47,30.31,30.17,5,1,11,0.00
2013-9-18,75,65,58,57,52,49,74,63,49,30.31,30.17,5,0,8,0.00
2013-9-19,79,66,57,62,56,51,80,69,51,30.21,30.09,2,0,4,0.00
2013-9-20,86,71,62,66,61,55,81,69,49,30.11,29.93,2,0,4,0.00
2013-9-21,77,71,66,66,63,59,83,75,66,29.95,29.72,4,0,7,0.78
2013-9-22,77,68,59,61,55,52,85,64,46,29.93,29.68,4,1,11,0.53
2013-9-23,72,63,55,59,54,50,83,73,54,30.08,29.92,4,0,5,0.00
2013-9-24,77,65,57,60,55,51,84,72,54,30.10,29.96,3,0,4,0.00
2013-9-25,68,65,61,60,58,54,83,79,73,29.97,29.89,2,0,3,0.28
2013-9-26,72,63,58,58,56,54,85,80,58,29.99,29.90,4,0,8,0.01
2013-9-27,75,64,53,56,52,48,84,67,49,30.19,30.05,4,0,7,0.00
2013-9-28,72,60,52,54,50,47,84,71,51,30.26,30.17,4,0,8,0.00
2013-9-29,72,62,53,56,52,47,81,70,53,30.19,30.04,5,0,8,0.00
2013-9-30,74,61,52,57,52,46,84,73,51,30.12,30.02,3,0,4,0.00